SCP
0 0 0 0 0 0 0 0 0 0 0 0 0 0 0 0 0 0 0 0 0 0 0 0 0 0 0 0 0 0 0 0 0 0 0 0 0 0 0 0 0 0 0 0 0 0 0 0 0 0 0 0 0 0
0 0 0 0 0 0 0 0 0 0 0 0 0 0 0 0 0 0 0 0 0 0 0 0 0 0 0 -0 0 0 0 0 0 0 0 0 0 0 0 0 0 0 0 0 0 0 0 0 0 0 0 0 0 0
0 0 0 0 0 0 0 0 0 0 0 0 0 0 0 0 0 0 0 0 0 0 0 0 0 0 0 -0 0 0 0 0 0 0 0 0 0 0 0 0 0 0 0 0 0 0 0 0 0 0 0 0 0 0
0 0 0 0 0 0 0 0 0 0 0 0 0 0 0 0 0 0 0 0 0 0 0 0 0 0 0 0 0 0 -0 0 0 0 0 0 0 0 0 0 0 -0 -0 -0 0 0 0 0 0 0 0 0 0 0
0 0 0 0 0 0 0 0 0 0 0 0 0 0 0 0 0 0 0 0 0 0 0 0 -0 0 0 0 0 0 0 0 0 0 0 0 0 -0 0 0 0 -0 -0 -0 0 0 0 0 0 0 0 0 0 0
0 0 0 0 0 0 0 0 0 0 0 0 0 0 0 0 0 0 0 0 0 0 0 0 0 0 0 0 0 0 0 0 0 0 0 0 -0 0 -0 0 0 0 0 0 0 0 0 0 0 0 0 0 0 0
0 0 0 0 0 0 0 0 0 0 0 0 0 0 0 0 0 0 0 0 0 0 0 0 0 -0 0 -0 -0 0 0 0 0 0 0 0 -0 -0 -0 0 -0 -0 -0 -0 0 0 0 0 0 0 0 0 0 0
0 0 0 0 0 0 0 0 0 0 0 0 0 0 0 0 0 0 0 0 0 0 0 0 0 -0 -0 0 -0 0 0 0 0 0 0 0 -0 0 0 0 0 -0 -0 -0 0 0 0 0 0 0 0 0 0 0
0 0 0 0 0 0 0 0 0 0 0 0 0 0 0 0 0 0 0 0 0 0 0 0 0 0 -0 -0 0 0 0 0 0 0 0 -0 -0 0 0 0 0 -0 -0 0 0 0 0 0 0 0 0 0 -0 -0
0 0 0 0 0 0 0 0 0 0 0 0 0 0 0 0 0 0 0 0 0 0 0 0 0 0 0 0 0 0 0 0 -0 0 0 -0 0 0 -0 -0 -0 -0 -0 -0 -0 0 0 0 0 0 0 0 0 0
0 0 0 0 0 0 0 0 0 0 0 0 0 0 0 0 0 0 0 0 0 0 0 0 0 0 0 0 0 0 0 -0 -0 -0 -0 -0 -0 0 -0 -0 -0 -0 -0 0 0 0 0 0 0 -0 0 0 0 0
0 0 0 0 0 0 0 0 -0 0 0 0 0 0 0 0 0 0 0 0 0 -0 0 0 -0 0 0 0 0 0 0 -0 0 -0 -0 -0 0 -0 -0 -0 -0 -0 -0 0 0 0 0 0 0 -0 0 0 -0 -0
0 0 0 0 0 -0 0 0 0 -0 0 0 0 0 0 0 0 0 -0 0 -0 -0 -0 0 -0 0 -0 0 -0 -0 -0 0 -0 -0 -0 0 0 -0 -0 -0 -0 -0 -0 0 0 0 0 0 0 -0 0 0 -0 -0
0 0 0 0 -0 0 0 -0 -0 0 0 0 0 0 0 0 0 0 0 0 0 -0 -0 0 -0 -0 0 0 -0 0 -0 0 -0 0 -0 -0 0 -0 -0 -0 -0 -0 -0 -0 0 0 0 0 0 0 0 0 0 -0
-0 0 0 0 0 -0 -0 -0 -0 0 0 0 0 0 0 0 0 0 0 0 -0 -0 -0 0 0 -0 0 0 0 0 -0 0 0 0 -0 0 0 0 0 -0 -0 -0 -0 -0 -0 -0 0 0 0 -0 0 0 0 0
0 0 0 0 0 0 -0 -0 0 0 0 0 0 0 0 0 0 0 0 0 0 -0 0 0 0 0 -0 0 0 0 0 0 0 0 0 0 -0 -0 -0 -0 -0 -0 -0 -0 -0 -0 -0 0 0 -0 0 0 -0 -0
0 0 0 -0 0 -0 -0 0 0 0 0 0 0 0 0 0 -0 0 0 0 0 0 0 0 0 0 0 0 0 0 -0 0 0 0 0 0 -0 -0 -0 -0 -0 -0 -0 -0 -0 -0 -0 -0 0 -0 0 0 -0 -0
0 0 0 -0 -0 0 0 0 0 0 0 0 0 0 0 0 0 0 0 0 0 0 -0 -0 0 0 -0 -0 0 0 0 0 0 0 0 -0 -0 -0 -0 -0 -0 -0 -0 -0 -0 0 -0 -0 -0 0 -0 -0 -0 -0
0 0 -0 -0 0 0 0 0 0 0 0 0 0 0 0 0 0 0 0 0 0 0 0 0 0 0 0 0 0 0 -0 -0 -0 -0 0 -0 -0 -0 -0 -0 -0 -0 -0 0 -0 -0 -0 -0 0 -0 0 -0 -0 0
-0 -0 -0 -0 0 0 0 0 0 0 0 0 0 0 0 0 0 0 0 0 0 0 0 0 0 0 0 0 0 -0 -0 -0 0 0 0 0 -0 0 0 0 0 0 -0 -0 -0 -0 -0 -0 -0 -0 -0 0 -0 -0
0 0 0 0 0 0 0 0 0 0 0 0 0 0 0 0 0 0 0 0 0 0 0 0 0 0 0 0 0 0 0 0 0 0 0 0 0 0 0 0 0 -0 -0 -0 -0 0 0 0 0 -0 0 0 0 0
0 0 0 0 0 0 0 0 0 0 0 0 0 0 0 0 0 -0 0 0 0 0 0 0 0 0 0 0 0 0 0 0 0 0 0 0 0 0 0 0 0 -0 -0 -0 0 0 -0 0 -0 -0 0 -0 0 0
0 0 0 0 0 0 0 0 0 0 0 0 0 0 0 0 0 0 0 0 0 0 0 0 0 0 0 0 0 0 0 0 0 0 0 0 0 0 0 -0 -0 0 0 0 0 0 0 0 -0 -0 -0 0 0 -0
0 0 0 0 0 0 0 0 0 0 0 0 0 0 0 0 0 0 0 0 0 0 -0 -0 -0 -0 0 0 0 0 0 0 0 0 0 0 0 0 0 0 0 0 0 0 0 0 0 0 0 -0 0 0 0 0
0 0 0 0 0 0 0 0 0 0 0 0 0 0 0 0 0 0 0 0 0 -0 -0 -0 -0 -0 0 0 0 0 0 0 0 0 0 0 0 0 0 0 0 0 0 0 0 0 0 0 0 0 0 0 0 0
0 0 0 0 0 0 0 0 0 0 0 0 0 0 0 0 0 0 0 0 0 0 0 0 -0 0 0 0 0 0 0 0 0 0 0 0 0 0 0 0 0 0 0 -0 -0 0 0 0 0 0 0 0 0 0
0 0 0 0 0 0 0 0 0 0 0 0 0 0 0 0 0 0 0 0 0 0 0 0 0 0 0 0 0 0 0 0 0 0 0 0 0 0 0 0 0 0 0 0 0 0 0 0 0 0 -0 -0 -0 -0
0 0 0 0 0 0 0 0 0 0 0 0 0 0 0 0 0 0 0 0 0 0 0 0 0 0 0 0 0 0 0 0 0 0 0 0 0 0 0 0 0 0 0 0 0 0 0 0 0 0 0 0 0 -0
0 0 0 0 0 0 0 0 0 0 0 0 0 0 0 0 0 0 0 0 0 0 0 0 0 0 0 0 0 0 0 0 0 0 0 0 0 0 0 0 0 0 0 0 0 -0 0 0 0 0 0 0 -0 0
0 0 0 0 0 0 0 0 0 0 0 0 0 0 0 0 0 0 0 0 0 0 0 0 0 0 0 0 0 0 0 0 0 0 0 0 0 0 0 0 0 0 0 0 0 0 0 0 0 0 0 -0 0 0
0 0 0 0 0 0 0 0 0 0 0 0 0 0 0 0 0 0 0 0 0 0 0 0 0 0 0 0 0 0 0 0 0 0 0 0 0 0 0 0 0 0 0 0 0 0 0 -0 -0 0 0 0 0 0
0 0 0 0 0 0 0 0 0 0 0 0 0 0 0 0 0 0 0 0 0 0 0 0 0 0 0 0 0 0 0 0 0 0 0 0 0 0 0 0 0 0 0 0 0 0 0 0 0 0 0 0 0 0
0 0 0 0 0 0 0 0 0 0 0 0 0 0 0 0 0 0 0 0 0 0 0 0 0 0 0 0 0 0 0 0 0 0 0 0 0 0 0 0 0 0 0 0 0 0 0 0 0 0 0 0 0 0
Wind_Speed_500mb
38 37 32 34 32 26 26 26 26 26 26 24 18 18 21 17 17 19 20 20 18 14 41 44 12 15 13 12 5 16 20 10 8 5 2 5 4 4 5 6 4 9 4 4 4 6 11 13 6 1 9 38 42 47
41 36 35 35 28 20 20 22 19 20 24 23 18 17 21 20 18 20 25 20 25 24 38 43 56 67 67 39 29 12 13 20 6 3 5 4 5 5 2 4 6 5 5 4 9 10 4 4 23 11 38 37 50 54
42 36 35 32 21 20 20 21 19 21 23 19 18 20 23 20 19 25 24 21 21 19 39 23 17 13 26 31 32 18 13 4 4 10 3 4 5 4 5 6 6 1 7 2 10 1 6 50 28 36 46 53 62 62
43 39 39 35 33 30 26 25 21 22 22 22 18 20 24 22 22 27 25 27 26 17 10 17 12 15 25 13 16 38 28 25 22 12 4 4 4 3 4 6 2 5 7 6 11 15 40 21 38 52 68 75 67 65
42 45 43 46 39 37 33 26 19 23 22 24 20 19 23 19 14 22 19 27 31 18 9 26 56 18 35 31 27 31 34 28 12 4 1 5 6 5 6 1 3 5 4 3 8 31 26 48 61 74 74 74 65 66
41 44 47 42 39 34 31 29 23 21 27 22 19 18 23 20 13 12 8 10 12 22 9 7 16 11 14 34 51 40 35 25 11 5 7 9 6 3 2 5 6 10 3 16 16 43 51 62 63 60 68 91 82 72
38 35 41 42 37 36 35 31 28 28 25 21 20 22 21 22 20 14 9 5 11 5 7 11 11 14 21 14 29 28 26 14 9 4 4 7 8 2 2 6 2 18 33 40 30 37 43 40 63 77 73 83 77 89
31 26 28 34 33 30 37 28 26 27 23 23 21 24 22 20 21 24 27 30 18 13 8 5 7 14 4 17 12 15 11 13 7 4 4 7 3 2 5 3 18 35 43 35 37 50 56 64 63 69 82 79 83 84
28 25 24 25 28 28 28 30 23 26 25 27 26 20 14 15 12 10 13 17 17 18 6 6 4 5 17 13 7 12 11 3 10 4 6 6 3 6 2 8 22 31 31 43 53 53 53 56 61 72 74 81 81 95
31 27 27 30 30 34 30 24 23 25 35 31 26 11 9 8 9 12 3 6 8 10 10 7 8 6 11 7 14 9 11 6 5 8 4 3 2 6 3 11 23 32 44 47 50 52 65 69 69 72 77 83 83 102
34 33 32 32 32 29 32 26 25 36 41 34 16 10 12 14 18 7 8 9 10 7 12 14 23 12 14 10 5 15 7 6 3 2 3 4 3 4 4 10 26 32 45 49 46 48 48 57 64 71 78 83 94 90
37 33 31 25 22 28 25 22 31 47 36 23 20 18 16 10 8 7 6 7 9 7 11 10 19 27 14 14 2 4 2 2 6 17 4 3 4 8 8 23 26 32 44 50 51 52 57 58 56 62 71 83 97 95
37 35 36 32 28 28 21 28 34 53 37 31 8 9 8 9 8 9 9 6 6 9 14 14 7 13 13 5 3 3 3 5 20 5 2 3 13 9 14 20 27 31 40 47 55 58 62 59 54 58 71 81 90 104
41 36 35 39 35 35 34 43 58 59 28 9 13 9 8 9 8 8 6 3 5 19 27 18 6 6 2 4 4 4 4 6 2 4 2 1 7 11 18 24 25 35 39 48 53 58 62 59 61 61 67 78 86 109
37 36 35 37 36 32 34 51 68 54 13 11 10 9 12 19 7 10 17 18 27 32 27 12 5 3 3 3 0 3 4 2 2 4 3 11 8 15 20 22 25 32 39 43 47 48 58 61 62 64 66 74 80 102
30 28 41 32 32 38 39 76 66 43 14 11 11 7 12 6 8 13 13 21 27 31 29 9 7 4 5 5 1 3 1 4 4 4 18 7 11 16 16 20 24 32 34 42 37 42 48 61 63 61 64 71 78 99
26 38 25 30 35 40 73 71 28 12 11 9 11 24 24 11 13 15 16 26 23 24 3 6 4 8 3 4 1 5 7 6 24 20 8 8 8 8 13 16 21 32 40 41 44 44 50 58 59 58 69 73 72 94
37 33 28 34 49 90 56 21 13 15 10 16 9 14 23 19 9 15 12 25 7 1 4 5 10 5 7 6 5 6 12 31 18 6 6 12 10 9 22 19 21 39 46 47 52 61 63 59 65 58 60 63 72 90
40 34 36 42 54 50 12 13 12 12 21 7 25 17 13 15 28 22 24 21 10 4 5 6 1 3 3 2 11 21 41 24 18 13 13 10 7 6 16 14 24 39 41 46 40 50 64 60 63 52 56 56 63 76
32 34 61 72 61 11 10 7 14 6 7 14 15 18 16 9 18 23 21 16 11 8 3 3 1 7 16 29 36 34 28 18 25 8 4 3 4 11 19 24 25 29 32 36 39 43 55 65 67 59 48 50 55 60
58 75 70 57 25 10 8 12 12 10 8 10 17 16 6 16 15 16 27 21 10 4 5 15 35 35 29 26 19 17 30 33 24 22 30 28 32 26 19 19 21 30 35 39 43 48 51 51 56 65 47 47 47 49
67 71 55 28 6 6 5 13 8 7 7 6 21 14 7 8 17 14 14 10 1 4 24 46 41 36 31 24 20 32 36 28 17 13 19 21 18 18 24 22 19 30 37 40 39 44 46 46 49 60 51 41 45 49
76 57 20 7 5 7 6 13 7 6 3 11 14 5 6 9 15 15 1 2 7 23 39 36 33 30 30 26 29 25 14 2 22 21 22 16 16 16 20 25 24 26 31 36 32 38 40 40 48 56 56 49 42 52
52 13 8 11 10 8 10 11 9 7 7 8 6 3 3 7 26 4 5 6 33 44 43 42 42 35 28 32 31 17 22 13 16 24 22 18 19 19 18 20 22 29 24 28 26 33 38 39 44 52 58 56 53 48
13 9 10 7 11 9 8 8 6 5 6 8 8 4 6 8 4 2 6 15 51 45 43 38 30 25 38 33 20 13 3 23 20 20 16 20 22 18 16 16 16 22 27 31 38 31 35 37 40 47 54 56 58 51
6 12 15 15 9 7 7 8 10 8 5 3 5 8 6 5 5 2 2 17 51 49 43 31 30 36 32 35 33 24 28 23 18 16 14 9 7 2 8 9 12 21 27 30 31 31 31 34 37 43 48 53 53 54
6 7 11 12 4 8 5 5 5 8 4 6 6 5 5 5 5 2 2 9 38 34 31 27 25 30 39 40 32 27 21 15 14 15 13 4 6 10 14 17 16 15 18 24 28 32 31 34 35 38 41 43 46 48
3 8 7 11 6 4 4 6 4 5 6 12 7 6 5 5 3 5 14 25 33 27 27 22 26 38 51 40 29 20 19 20 19 14 17 18 14 14 12 10 10 9 16 22 25 30 34 32 33 35 38 40 40 40
2 10 12 7 4 4 4 3 1 3 6 7 6 5 6 8 17 21 28 31 27 29 38 43 48 44 40 34 27 22 27 32 24 25 24 26 16 6 0 4 4 7 15 20 25 32 32 34 35 35 35 35 34 32
8 13 7 5 4 2 2 4 8 6 16 30 27 46 44 37 31 25 25 27 28 33 41 43 45 39 40 33 30 22 14 12 15 32 31 21 11 6 9 10 8 7 11 21 26 30 32 32 32 32 34 35 35 34
18 8 7 8 7 18 35 44 43 43 46 54 50 52 37 29 37 32 30 31 31 25 26 30 30 25 28 26 17 7 14 14 12 14 12 9 10 14 14 14 13 12 14 19 26 30 34 36 36 35 35 36 37 38
8 5 9 5 7 22 33 27 29 37 36 40 34 33 27 15 13 13 23 24 26 28 27 26 29 36 32 26 24 19 11 17 13 7 6 11 18 18 16 15 13 13 18 21 26 29 33 35 35 34 33 32 32 34
14 22 19 9 6 6 10 13 9 9 11 8 10 16 16 9 8 8 21 29 25 21 28 29 32 31 28 25 23 21 15 6 5 8 8 7 7 8 9 10 11 12 17 22 27 27 27 30 31 30 29 29 29 31
Wind_Direction_500mb
282 286 287 291 290 298 301 297 294 297 293 284 280 278 283 271 271 275 269 297 294 250 276 280 256 236 249 249 239 320 332 0 349 7 6 331 343 304 26 276 197 169 227 228 230 221 247 26 340 43 302 323 309 307
280 280 279 281 288 286 301 309 306 298 294 282 266 261 268 272 256 266 257 277 318 257 263 277 277 277 268 246 257 272 293 305 318 8 13 342 329 337 155 299 11 78 203 233 195 230 192 296 289 253 324 303 303 302
273 266 267 274 272 279 292 309 313 307 305 281 265 250 254 268 249 253 259 267 312 287 300 279 288 287 254 286 271 224 251 263 327 357 237 255 273 132 287 282 332 75 16 95 12 276 340 318 306 311 317 309 311 308
263 259 258 263 270 278 280 291 300 302 300 290 266 247 248 264 255 249 263 259 286 301 283 286 252 252 232 275 255 226 225 286 297 303 240 230 220 221 262 262 170 236 5 336 267 292 323 287 303 308 310 309 301 300
269 254 253 254 261 270 268 276 286 295 291 290 257 243 243 254 260 255 260 264 281 274 280 286 298 327 227 227 254 240 238 252 260 303 299 240 241 8 325 94 219 208 230 258 269 301 286 284 301 310 308 304 297 309
286 261 249 253 252 257 264 265 271 284 278 278 247 234 237 229 234 262 274 247 257 236 282 289 304 311 230 234 249 232 225 232 241 259 269 270 252 221 328 282 91 96 302 296 279 297 300 297 307 316 310 312 309 306
289 274 248 245 250 253 260 260 272 276 274 256 231 223 242 218 230 224 234 200 325 229 261 289 291 284 309 225 192 208 208 214 216 227 264 284 291 276 217 243 11 348 334 324 321 316 310 311 306 316 320 313 326 317
289 275 254 245 246 250 255 255 270 269 256 221 216 219 232 220 241 251 256 259 277 216 238 273 277 295 313 186 174 192 181 188 212 241 222 249 230 165 252 298 344 342 338 329 318 315 300 309 315 322 330 322 325 327
279 266 258 251 247 247 255 249 263 257 208 203 206 216 196 217 231 251 256 271 217 209 246 246 268 285 345 197 173 166 184 180 196 202 235 217 194 222 3 350 347 347 335 316 322 322 323 320 323 328 331 330 330 328
272 261 260 261 261 253 250 244 250 232 202 197 185 180 197 205 185 174 165 170 214 220 242 244 234 258 341 300 183 209 182 208 196 218 212 220 250 132 75 347 350 344 341 339 329 330 330 329 327 329 335 332 336 332
262 259 258 255 263 239 237 224 231 211 189 179 183 176 175 153 160 200 225 197 192 242 226 236 216 231 253 238 195 205 178 176 240 157 240 191 203 133 134 3 339 337 344 347 337 332 333 329 331 336 337 336 333 336
255 256 246 254 243 237 215 218 229 213 196 189 159 143 154 181 197 239 207 191 209 241 209 213 211 205 245 223 114 342 200 69 246 145 236 206 112 100 24 355 340 339 339 347 355 355 352 347 351 348 344 340 339 340
248 255 247 250 241 245 224 236 235 213 185 138 132 148 170 179 223 222 207 199 221 213 224 212 195 203 219 214 91 13 248 231 125 182 172 65 111 59 30 353 339 341 340 344 352 360 358 357 5 2 353 348 349 347
242 249 243 246 246 244 223 216 212 194 164 148 158 182 211 194 232 204 218 281 290 259 272 303 253 189 217 82 132 295 248 133 265 10 129 124 58 28 4 345 342 343 343 345 346 350 352 0 4 8 4 359 352 353
238 242 242 245 244 208 212 211 207 188 152 171 186 215 219 236 256 214 252 258 248 250 278 281 69 338 333 141 341 34 269 109 127 236 143 124 55 32 6 348 341 345 347 346 345 349 359 5 2 8 9 7 360 359
233 237 245 245 205 189 191 187 173 174 157 185 215 240 256 297 276 212 241 240 240 262 288 199 100 269 239 152 95 223 75 239 238 141 135 97 39 17 360 349 350 350 349 342 354 348 2 11 4 9 13 16 9 5
202 236 240 191 184 188 190 170 157 155 193 211 231 231 245 291 267 232 210 217 239 272 247 92 134 226 135 70 343 169 191 212 140 137 118 355 26 19 4 21 21 6 18 30 20 17 11 13 10 16 17 17 15 12
221 226 201 187 177 169 159 161 149 177 215 221 228 233 218 227 273 269 258 263 297 222 134 204 140 271 167 176 260 214 121 136 136 93 76 108 95 44 60 52 26 24 26 27 27 21 17 17 16 16 18 21 20 13
207 196 194 190 188 156 130 154 163 197 222 222 228 223 234 242 237 260 269 281 229 240 275 256 165 119 208 175 140 142 149 149 134 116 111 101 101 59 43 36 31 28 24 21 20 20 17 25 21 18 19 22 27 18
192 194 178 176 161 105 116 142 164 210 213 220 216 214 217 212 233 255 247 255 251 243 231 55 153 131 127 135 144 138 140 132 129 113 328 4 134 82 77 61 49 29 28 29 32 29 20 24 23 22 22 22 26 22
169 167 165 159 115 109 127 158 179 212 214 217 200 171 210 211 225 228 247 264 226 237 103 131 120 121 126 127 126 116 122 123 92 75 77 99 119 116 69 52 45 29 32 28 30 28 25 21 14 16 23 24 25 30
153 164 154 153 95 111 137 184 194 197 234 212 158 170 170 176 233 243 242 208 196 167 146 143 136 136 133 126 120 131 118 112 102 105 104 111 113 81 65 54 42 39 34 29 31 27 27 26 20 18 27 30 27 32
157 158 133 99 126 172 209 186 200 202 210 163 161 190 228 197 197 170 70 162 111 151 158 154 150 154 140 138 142 131 120 84 80 113 126 114 104 81 62 57 49 44 35 30 32 30 31 30 26 20 27 32 31 31
153 122 137 164 169 196 176 179 198 207 186 168 164 240 229 151 148 200 183 107 152 154 157 159 162 143 132 139 137 109 139 152 150 97 115 130 121 96 68 49 38 49 37 26 31 34 34 32 28 21 23 32 33 32
121 168 164 187 204 208 184 172 190 217 176 165 162 163 236 139 107 165 161 138 158 159 157 162 165 165 148 143 148 126 124 171 151 139 101 110 122 114 80 44 36 35 23 24 29 25 27 28 28 24 22 24 30 30
133 184 184 193 185 186 174 167 187 198 158 131 126 192 142 99 123 102 359 159 171 166 169 173 166 163 166 169 164 143 137 163 168 146 134 179 135 76 23 48 71 44 22 17 16 21 24 23 20 22 23 21 22 25
158 189 198 209 217 168 172 238 154 119 149 172 181 147 116 104 75 338 24 98 174 172 180 181 187 186 175 157 162 167 164 167 182 153 141 151 115 73 76 75 64 43 9 2 7 13 11 11 12 13 17 16 17 17
221 171 157 167 171 174 133 128 155 160 211 171 128 55 74 51 153 76 92 138 147 154 144 140 148 163 157 158 162 161 146 148 145 144 131 128 126 111 104 77 48 4 358 356 356 359 3 3 2 1 3 7 8 7
231 134 120 97 101 102 76 74 11 23 337 103 86 87 99 74 79 112 100 136 148 142 137 138 135 140 141 145 147 152 152 161 168 167 152 141 153 125 194 246 254 351 350 331 331 337 350 353 355 355 357 1 4 4
142 126 92 67 73 94 45 109 101 101 127 121 106 112 103 93 95 128 126 128 144 139 141 144 148 157 156 164 157 151 149 179 197 201 177 155 155 203 291 305 303 303 278 301 318 326 332 342 349 352 357 358 1 5
131 113 88 72 71 74 93 99 96 99 107 113 123 115 114 101 97 107 115 117 134 145 145 155 165 180 185 181 176 171 139 136 163 184 186 204 257 290 305 313 317 295 292 308 313 324 334 342 351 356 359 1 3 4
102 108 107 97 84 103 99 74 78 90 92 96 97 107 108 79 61 57 73 118 143 172 185 185 185 169 177 184 175 166 144 142 160 180 233 267 287 297 300 304 302 282 289 300 311 322 332 339 349 355 359 0 0 0
91 94 102 93 99 93 93 102 85 76 66 64 62 77 77 73 79 65 69 110 120 138 150 145 140 134 138 147 152 153 159 176 283 305 316 319 319 316 314 313 307 292 283 296 306 320 332 335 344 350 355 357 360 1
Wind_Speed_850mb
38 37 32 34 32 26 26 26 26 26 26 24 18 18 21 17 17 19 20 20 18 14 41 44 12 15 13 12 5 16 20 10 8 5 2 5 4 4 5 6 4 9 4 4 4 6 11 13 6 1 9 38 42 47
41 36 35 35 28 20 20 22 19 20 24 23 18 17 21 20 18 20 25 20 25 24 38 43 56 67 67 39 29 12 13 20 6 3 5 4 5 5 2 4 6 5 5 4 9 10 4 4 23 11 38 37 50 54
42 36 35 32 21 20 20 21 19 21 23 19 18 20 23 20 19 25 24 21 21 19 39 23 17 13 26 31 32 18 13 4 4 10 3 4 5 4 5 6 6 1 7 2 10 1 6 50 28 36 46 53 62 62
43 39 39 35 33 30 26 25 21 22 22 22 18 20 24 22 22 27 25 27 26 17 10 17 12 15 25 13 16 38 28 25 22 12 4 4 4 3 4 6 2 5 7 6 11 15 40 21 38 52 68 75 67 65
42 45 43 46 39 37 33 26 19 23 22 24 20 19 23 19 14 22 19 27 31 18 9 26 56 18 35 31 27 31 34 28 12 4 1 5 6 5 6 1 3 5 4 3 8 31 26 48 61 74 74 74 65 66
41 44 47 42 39 34 31 29 23 21 27 22 19 18 23 20 13 12 8 10 12 22 9 7 16 11 14 34 51 40 35 25 11 5 7 9 6 3 2 5 6 10 3 16 16 43 51 62 63 60 68 91 82 72
38 35 41 42 37 36 35 31 28 28 25 21 20 22 21 22 20 14 9 5 11 5 7 11 11 14 21 14 29 28 26 14 9 4 4 7 8 2 2 6 2 18 33 40 30 37 43 40 63 77 73 83 77 89
31 26 28 34 33 30 37 28 26 27 23 23 21 24 22 20 21 24 27 30 18 13 8 5 7 14 4 17 12 15 11 13 7 4 4 7 3 2 5 3 18 35 43 35 37 50 56 64 63 69 82 79 83 84
28 25 24 25 28 28 28 30 23 26 25 27 26 20 14 15 12 10 13 17 17 18 6 6 4 5 17 13 7 12 11 3 10 4 6 6 3 6 2 8 22 31 31 43 53 53 53 56 61 72 74 81 81 95
31 27 27 30 30 34 30 24 23 25 35 31 26 11 9 8 9 12 3 6 8 10 10 7 8 6 11 7 14 9 11 6 5 8 4 3 2 6 3 11 23 32 44 47 50 52 65 69 69 72 77 83 83 102
34 33 32 32 32 29 32 26 25 36 41 34 16 10 12 14 18 7 8 9 10 7 12 14 23 12 14 10 5 15 7 6 3 2 3 4 3 4 4 10 26 32 45 49 46 48 48 57 64 71 78 83 94 90
37 33 31 25 22 28 25 22 31 47 36 23 20 18 16 10 8 7 6 7 9 7 11 10 19 27 14 14 2 4 2 2 6 17 4 3 4 8 8 23 26 32 44 50 51 52 57 58 56 62 71 83 97 95
37 35 36 32 28 28 21 28 34 53 37 31 8 9 8 9 8 9 9 6 6 9 14 14 7 13 13 5 3 3 3 5 20 5 2 3 13 9 14 20 27 31 40 47 55 58 62 59 54 58 71 81 90 104
41 36 35 39 35 35 34 43 58 59 28 9 13 9 8 9 8 8 6 3 5 19 27 18 6 6 2 4 4 4 4 6 2 4 2 1 7 11 18 24 25 35 39 48 53 58 62 59 61 61 67 78 86 109
37 36 35 37 36 32 34 51 68 54 13 11 10 9 12 19 7 10 17 18 27 32 27 12 5 3 3 3 0 3 4 2 2 4 3 11 8 15 20 22 25 32 39 43 47 48 58 61 62 64 66 74 80 102
30 28 41 32 32 38 39 76 66 43 14 11 11 7 12 6 8 13 13 21 27 31 29 9 7 4 5 5 1 3 1 4 4 4 18 7 11 16 16 20 24 32 34 42 37 42 48 61 63 61 64 71 78 99
26 38 25 30 35 40 73 71 28 12 11 9 11 24 24 11 13 15 16 26 23 24 3 6 4 8 3 4 1 5 7 6 24 20 8 8 8 8 13 16 21 32 40 41 44 44 50 58 59 58 69 73 72 94
37 33 28 34 49 90 56 21 13 15 10 16 9 14 23 19 9 15 12 25 7 1 4 5 10 5 7 6 5 6 12 31 18 6 6 12 10 9 22 19 21 39 46 47 52 61 63 59 65 58 60 63 72 90
40 34 36 42 54 50 12 13 12 12 21 7 25 17 13 15 28 22 24 21 10 4 5 6 1 3 3 2 11 21 41 24 18 13 13 10 7 6 16 14 24 39 41 46 40 50 64 60 63 52 56 56 63 76
32 34 61 72 61 11 10 7 14 6 7 14 15 18 16 9 18 23 21 16 11 8 3 3 1 7 16 29 36 34 28 18 25 8 4 3 4 11 19 24 25 29 32 36 39 43 55 65 67 59 48 50 55 60
58 75 70 57 25 10 8 12 12 10 8 10 17 16 6 16 15 16 27 21 10 4 5 15 35 35 29 26 19 17 30 33 24 22 30 28 32 26 19 19 21 30 35 39 43 48 51 51 56 65 47 47 47 49
67 71 55 28 6 6 5 13 8 7 7 6 21 14 7 8 17 14 14 10 1 4 24 46 41 36 31 24 20 32 36 28 17 13 19 21 18 18 24 22 19 30 37 40 39 44 46 46 49 60 51 41 45 49
76 57 20 7 5 7 6 13 7 6 3 11 14 5 6 9 15 15 1 2 7 23 39 36 33 30 30 26 29 25 14 2 22 21 22 16 16 16 20 25 24 26 31 36 32 38 40 40 48 56 56 49 42 52
52 13 8 11 10 8 10 11 9 7 7 8 6 3 3 7 26 4 5 6 33 44 43 42 42 35 28 32 31 17 22 13 16 24 22 18 19 19 18 20 22 29 24 28 26 33 38 39 44 52 58 56 53 48
13 9 10 7 11 9 8 8 6 5 6 8 8 4 6 8 4 2 6 15 51 45 43 38 30 25 38 33 20 13 3 23 20 20 16 20 22 18 16 16 16 22 27 31 38 31 35 37 40 47 54 56 58 51
6 12 15 15 9 7 7 8 10 8 5 3 5 8 6 5 5 2 2 17 51 49 43 31 30 36 32 35 33 24 28 23 18 16 14 9 7 2 8 9 12 21 27 30 31 31 31 34 37 43 48 53 53 54
6 7 11 12 4 8 5 5 5 8 4 6 6 5 5 5 5 2 2 9 38 34 31 27 25 30 39 40 32 27 21 15 14 15 13 4 6 10 14 17 16 15 18 24 28 32 31 34 35 38 41 43 46 48
3 8 7 11 6 4 4 6 4 5 6 12 7 6 5 5 3 5 14 25 33 27 27 22 26 38 51 40 29 20 19 20 19 14 17 18 14 14 12 10 10 9 16 22 25 30 34 32 33 35 38 40 40 40
2 10 12 7 4 4 4 3 1 3 6 7 6 5 6 8 17 21 28 31 27 29 38 43 48 44 40 34 27 22 27 32 24 25 24 26 16 6 0 4 4 7 15 20 25 32 32 34 35 35 35 35 34 32
8 13 7 5 4 2 2 4 8 6 16 30 27 46 44 37 31 25 25 27 28 33 41 43 45 39 40 33 30 22 14 12 15 32 31 21 11 6 9 10 8 7 11 21 26 30 32 32 32 32 34 35 35 34
18 8 7 8 7 18 35 44 43 43 46 54 50 52 37 29 37 32 30 31 31 25 26 30 30 25 28 26 17 7 14 14 12 14 12 9 10 14 14 14 13 12 14 19 26 30 34 36 36 35 35 36 37 38
8 5 9 5 7 22 33 27 29 37 36 40 34 33 27 15 13 13 23 24 26 28 27 26 29 36 32 26 24 19 11 17 13 7 6 11 18 18 16 15 13 13 18 21 26 29 33 35 35 34 33 32 32 34
14 22 19 9 6 6 10 13 9 9 11 8 10 16 16 9 8 8 21 29 25 21 28 29 32 31 28 25 23 21 15 6 5 8 8 7 7 8 9 10 11 12 17 22 27 27 27 30 31 30 29 29 29 31
Wind_Direction_850mb
282 286 287 291 290 298 301 297 294 297 293 284 280 278 283 271 271 275 269 297 294 250 276 280 256 236 249 249 239 320 332 0 349 7 6 331 343 304 26 276 197 169 227 228 230 221 247 26 340 43 302 323 309 307
280 280 279 281 288 286 301 309 306 298 294 282 266 261 268 272 256 266 257 277 318 257 263 277 277 277 268 246 257 272 293 305 318 8 13 342 329 337 155 299 11 78 203 233 195 230 192 296 289 253 324 303 303 302
273 266 267 274 272 279 292 309 313 307 305 281 265 250 254 268 249 253 259 267 312 287 300 279 288 287 254 286 271 224 251 263 327 357 237 255 273 132 287 282 332 75 16 95 12 276 340 318 306 311 317 309 311 308
263 259 258 263 270 278 280 291 300 302 300 290 266 247 248 264 255 249 263 259 286 301 283 286 252 252 232 275 255 226 225 286 297 303 240 230 220 221 262 262 170 236 5 336 267 292 323 287 303 308 310 309 301 300
269 254 253 254 261 270 268 276 286 295 291 290 257 243 243 254 260 255 260 264 281 274 280 286 298 327 227 227 254 240 238 252 260 303 299 240 241 8 325 94 219 208 230 258 269 301 286 284 301 310 308 304 297 309
286 261 249 253 252 257 264 265 271 284 278 278 247 234 237 229 234 262 274 247 257 236 282 289 304 311 230 234 249 232 225 232 241 259 269 270 252 221 328 282 91 96 302 296 279 297 300 297 307 316 310 312 309 306
289 274 248 245 250 253 260 260 272 276 274 256 231 223 242 218 230 224 234 200 325 229 261 289 291 284 309 225 192 208 208 214 216 227 264 284 291 276 217 243 11 348 334 324 321 316 310 311 306 316 320 313 326 317
289 275 254 245 246 250 255 255 270 269 256 221 216 219 232 220 241 251 256 259 277 216 238 273 277 295 313 186 174 192 181 188 212 241 222 249 230 165 252 298 344 342 338 329 318 315 300 309 315 322 330 322 325 327
279 266 258 251 247 247 255 249 263 257 208 203 206 216 196 217 231 251 256 271 217 209 246 246 268 285 345 197 173 166 184 180 196 202 235 217 194 222 3 350 347 347 335 316 322 322 323 320 323 328 331 330 330 328
272 261 260 261 261 253 250 244 250 232 202 197 185 180 197 205 185 174 165 170 214 220 242 244 234 258 341 300 183 209 182 208 196 218 212 220 250 132 75 347 350 344 341 339 329 330 330 329 327 329 335 332 336 332
262 259 258 255 263 239 237 224 231 211 189 179 183 176 175 153 160 200 225 197 192 242 226 236 216 231 253 238 195 205 178 176 240 157 240 191 203 133 134 3 339 337 344 347 337 332 333 329 331 336 337 336 333 336
255 256 246 254 243 237 215 218 229 213 196 189 159 143 154 181 197 239 207 191 209 241 209 213 211 205 245 223 114 342 200 69 246 145 236 206 112 100 24 355 340 339 339 347 355 355 352 347 351 348 344 340 339 340
248 255 247 250 241 245 224 236 235 213 185 138 132 148 170 179 223 222 207 199 221 213 224 212 195 203 219 214 91 13 248 231 125 182 172 65 111 59 30 353 339 341 340 344 352 360 358 357 5 2 353 348 349 347
242 249 243 246 246 244 223 216 212 194 164 148 158 182 211 194 232 204 218 281 290 259 272 303 253 189 217 82 132 295 248 133 265 10 129 124 58 28 4 345 342 343 343 345 346 350 352 0 4 8 4 359 352 353
238 242 242 245 244 208 212 211 207 188 152 171 186 215 219 236 256 214 252 258 248 250 278 281 69 338 333 141 341 34 269 109 127 236 143 124 55 32 6 348 341 345 347 346 345 349 359 5 2 8 9 7 360 359
233 237 245 245 205 189 191 187 173 174 157 185 215 240 256 297 276 212 241 240 240 262 288 199 100 269 239 152 95 223 75 239 238 141 135 97 39 17 360 349 350 350 349 342 354 348 2 11 4 9 13 16 9 5
202 236 240 191 184 188 190 170 157 155 193 211 231 231 245 291 267 232 210 217 239 272 247 92 134 226 135 70 343 169 191 212 140 137 118 355 26 19 4 21 21 6 18 30 20 17 11 13 10 16 17 17 15 12
221 226 201 187 177 169 159 161 149 177 215 221 228 233 218 227 273 269 258 263 297 222 134 204 140 271 167 176 260 214 121 136 136 93 76 108 95 44 60 52 26 24 26 27 27 21 17 17 16 16 18 21 20 13
207 196 194 190 188 156 130 154 163 197 222 222 228 223 234 242 237 260 269 281 229 240 275 256 165 119 208 175 140 142 149 149 134 116 111 101 101 59 43 36 31 28 24 21 20 20 17 25 21 18 19 22 27 18
192 194 178 176 161 105 116 142 164 210 213 220 216 214 217 212 233 255 247 255 251 243 231 55 153 131 127 135 144 138 140 132 129 113 328 4 134 82 77 61 49 29 28 29 32 29 20 24 23 22 22 22 26 22
169 167 165 159 115 109 127 158 179 212 214 217 200 171 210 211 225 228 247 264 226 237 103 131 120 121 126 127 126 116 122 123 92 75 77 99 119 116 69 52 45 29 32 28 30 28 25 21 14 16 23 24 25 30
153 164 154 153 95 111 137 184 194 197 234 212 158 170 170 176 233 243 242 208 196 167 146 143 136 136 133 126 120 131 118 112 102 105 104 111 113 81 65 54 42 39 34 29 31 27 27 26 20 18 27 30 27 32
157 158 133 99 126 172 209 186 200 202 210 163 161 190 228 197 197 170 70 162 111 151 158 154 150 154 140 138 142 131 120 84 80 113 126 114 104 81 62 57 49 44 35 30 32 30 31 30 26 20 27 32 31 31
153 122 137 164 169 196 176 179 198 207 186 168 164 240 229 151 148 200 183 107 152 154 157 159 162 143 132 139 137 109 139 152 150 97 115 130 121 96 68 49 38 49 37 26 31 34 34 32 28 21 23 32 33 32
121 168 164 187 204 208 184 172 190 217 176 165 162 163 236 139 107 165 161 138 158 159 157 162 165 165 148 143 148 126 124 171 151 139 101 110 122 114 80 44 36 35 23 24 29 25 27 28 28 24 22 24 30 30
133 184 184 193 185 186 174 167 187 198 158 131 126 192 142 99 123 102 359 159 171 166 169 173 166 163 166 169 164 143 137 163 168 146 134 179 135 76 23 48 71 44 22 17 16 21 24 23 20 22 23 21 22 25
158 189 198 209 217 168 172 238 154 119 149 172 181 147 116 104 75 338 24 98 174 172 180 181 187 186 175 157 162 167 164 167 182 153 141 151 115 73 76 75 64 43 9 2 7 13 11 11 12 13 17 16 17 17
221 171 157 167 171 174 133 128 155 160 211 171 128 55 74 51 153 76 92 138 147 154 144 140 148 163 157 158 162 161 146 148 145 144 131 128 126 111 104 77 48 4 358 356 356 359 3 3 2 1 3 7 8 7
231 134 120 97 101 102 76 74 11 23 337 103 86 87 99 74 79 112 100 136 148 142 137 138 135 140 141 145 147 152 152 161 168 167 152 141 153 125 194 246 254 351 350 331 331 337 350 353 355 355 357 1 4 4
142 126 92 67 73 94 45 109 101 101 127 121 106 112 103 93 95 128 126 128 144 139 141 144 148 157 156 164 157 151 149 179 197 201 177 155 155 203 291 305 303 303 278 301 318 326 332 342 349 352 357 358 1 5
131 113 88 72 71 74 93 99 96 99 107 113 123 115 114 101 97 107 115 117 134 145 145 155 165 180 185 181 176 171 139 136 163 184 186 204 257 290 305 313 317 295 292 308 313 324 334 342 351 356 359 1 3 4
102 108 107 97 84 103 99 74 78 90 92 96 97 107 108 79 61 57 73 118 143 172 185 185 185 169 177 184 175 166 144 142 160 180 233 267 287 297 300 304 302 282 289 300 311 322 332 339 349 355 359 0 0 0
91 94 102 93 99 93 93 102 85 76 66 64 62 77 77 73 79 65 69 110 120 138 150 145 140 134 138 147 152 153 159 176 283 305 316 319 319 316 314 313 307 292 283 296 306 320 332 335 344 350 355 357 360 1